RH
60 45 49 55 59 60 55 58 70 73 73 72 68 69 67 64 62 60 72 77 73 80 86 86 79 61 55 56 57 65 76 76 69 74 81 70 59 51 42 44 48 50 49 44 42 39 37 34 29 22 16 12 11 11 10 8 8 7 6 6 5 4 4 3 3 3 3 3 3 3 3 3 3 3 3 3 3 3 3 4 4 5 6 8 10 11
53 36 42 44 37 36 34 34 45 56 61 65 68 69 63 54 53 53 57 63 67 80 86 79 74 63 56 58 57 59 67 69 67 72 75 66 57 51 45 46 48 45 43 39 36 34 32 30 24 17 12 10 9 7 6 5 5 5 4 4 4 4 4 5 5 4 5 4 4 4 3 4 3 3 3 3 3 3 3 3 3 3 3 4 5 5
73 47 52 62 50 38 39 41 38 37 40 49 58 57 49 41 44 51 56 65 73 82 80 69 67 64 56 57 56 55 60 65 68 70 74 71 62 55 52 52 49 44 41 36 33 31 29 25 19 14 10 8 7 5 5 4 4 4 4 5 5 5 6 6 6 6 7 6 6 6 6 5 5 4 4 3 3 3 3 3 3 3 3 3 3 3
71 52 58 70 61 46 49 53 42 33 29 33 41 38 37 37 40 50 57 63 75 77 65 57 64 61 52 56 56 50 52 60 65 65 73 83 71 54 52 53 46 40 36 32 30 28 22 16 12 9 7 5 5 5 5 5 5 5 5 6 6 6 7 7 8 8 8 8 8 8 8 8 7 6 6 5 5 4 4 3 3 3 3 3 3 3
49 50 57 56 48 46 55 55 41 34 30 25 27 23 27 36 38 42 46 53 71 71 55 55 64 53 45 57 60 51 49 52 57 59 64 72 65 53 50 49 42 36 32 29 28 25 17 10 6 5 5 5 5 5 5 5 5 6 6 6 7 7 7 7 8 8 8 9 9 10 10 10 10 9 9 8 7 7 6 5 5 4 4 4 4 3
45 49 52 46 44 50 57 59 50 46 47 39 34 27 27 35 34 33 33 38 54 56 51 55 59 50 44 54 59 54 52 49 50 55 57 57 58 58 51 43 40 36 31 29 25 19 13 8 6 5 5 5 5 5 5 6 5 6 6 6 7 7 8 8 8 9 9 10 10 11 11 11 11 11 11 11 10 10 9 8 7 6 5 4 4 4
50 51 52 49 50 55 55 59 56 53 53 45 38 34 33 34 32 35 35 33 38 44 53 52 48 55 55 53 56 50 44 43 46 51 51 48 50 53 48 41 40 36 32 30 24 15 8 7 7 6 6 5 5 5 5 6 6 6 6 6 7 7 8 8 8 9 9 10 10 11 11 12 12 12 12 12 12 12 12 11 10 8 7 6 5 5
55 53 56 53 48 54 52 49 46 45 49 48 44 40 40 41 41 44 42 38 38 45 62 54 42 59 68 62 58 45 36 38 40 43 43 42 41 43 42 40 39 36 34 32 24 13 5 5 6 5 5 4 4 5 5 5 6 6 6 7 7 7 8 8 9 9 9 10 10 11 11 12 12 13 13 13 14 14 14 13 13 12 10 9 7 6
48 47 55 58 49 50 51 49 46 44 48 52 49 44 43 46 48 49 45 46 49 55 65 54 42 55 61 59 54 39 35 40 41 43 42 42 39 37 38 35 33 31 28 23 15 7 4 4 4 4 4 4 4 5 5 5 6 6 7 7 8 8 8 9 9 9 10 10 10 11 11 12 12 13 13 13 14 14 14 15 15 14 14 12 10 8
39 46 55 61 54 52 62 66 60 53 49 46 48 46 44 49 54 57 56 58 58 54 53 44 41 50 48 44 41 35 36 39 45 47 41 39 35 30 29 26 24 23 18 11 5 3 4 4 4 4 4 5 5 5 5 6 6 7 8 8 9 9 9 10 10 10 10 10 11 11 11 12 12 12 13 13 14 14 15 15 15 15 15 15 13 11
38 45 52 62 59 60 77 84 71 59 52 49 54 53 49 50 53 53 53 58 55 47 47 47 49 57 56 46 37 38 40 36 40 44 38 36 32 24 22 20 20 18 11 6 3 4 4 4 4 5 5 5 5 6 6 7 7 8 8 9 9 9 10 10 10 11 11 11 11 12 12 13 13 13 14 14 14 14 15 15 15 16 16 16 15 14
33 39 44 54 59 61 74 85 74 59 59 67 67 62 62 60 59 57 50 47 50 53 59 61 61 65 68 61 47 44 46 38 37 39 37 35 29 20 17 17 16 11 6 4 4 5 4 5 5 5 5 6 6 7 7 7 8 8 8 9 9 9 10 10 11 11 12 12 13 13 14 14 14 15 15 15 16 16 16 15 15 15 16 16 16 15
24 28 30 37 52 63 73 82 75 56 59 77 79 72 69 62 61 62 51 42 50 61 64 60 59 61 63 61 53 47 43 38 36 34 30 25 17 12 11 12 10 7 6 6 6 6 5 5 5 5 6 6 6 7 7 7 8 8 8 9 9 10 10 11 12 12 13 15 16 17 18 19 19 19 18 18 18 18 17 17 17 17 17 16 16 16
22 23 20 24 37 54 65 73 73 57 51 65 75 72 65 58 57 55 47 45 52 57 56 53 51 52 56 57 53 47 38 31 28 24 20 14 7 6 7 7 7 6 7 7 7 6 5 5 6 6 6 6 7 7 7 8 7 8 9 8 9 10 11 12 12 13 15 17 19 20 22 23 24 24 23 22 21 20 18 17 18 18 18 18 17 17
28 28 24 24 28 37 44 51 60 57 48 54 61 62 64 68 71 63 52 49 47 41 41 48 47 44 48 46 40 39 31 24 23 17 14 11 6 5 4 5 6 5 5 5 6 5 5 6 6 6 6 6 7 7 7 8 7 8 9 9 10 10 11 12 13 15 16 18 21 23 24 26 27 27 27 26 26 24 22 19 19 18 19 19 19 18
28 25 22 23 27 31 32 35 43 43 41 45 45 44 51 59 59 52 51 57 58 46 35 42 44 38 41 42 39 39 29 21 20 14 10 9 5 4 4 5 6 5 5 5 5 5 5 6 5 6 7 6 7 7 7 8 8 8 9 9 10 11 12 13 14 16 18 20 23 25 29 31 32 32 31 31 31 31 29 24 21 20 19 20 20 20
26 21 21 23 27 30 34 38 39 33 30 30 29 26 30 34 32 33 46 59 60 48 38 45 46 43 52 53 46 44 33 21 16 11 8 6 4 5 5 6 6 4 5 5 5 6 6 6 6 6 7 7 7 7 8 8 8 9 10 10 11 11 13 14 16 18 20 22 25 29 34 37 37 38 38 41 42 42 40 34 27 23 21 21 21 21
26 22 23 23 24 26 34 38 35 29 22 18 22 27 32 30 24 33 48 52 45 37 43 57 53 53 68 62 46 42 33 23 16 11 9 6 5 7 6 6 6 5 6 6 6 7 6 6 6 6 7 7 8 8 8 9 9 10 11 12 13 13 14 16 18 20 23 25 28 33 39 41 41 43 46 51 55 56 55 48 38 29 22 21 21 21
26 24 21 22 23 24 26 27 25 22 19 24 35 46 53 43 30 38 45 43 42 39 48 61 46 37 52 53 45 44 39 32 24 14 12 11 9 8 7 7 7 7 9 8 8 8 7 7 6 7 8 8 8 9 9 10 10 12 13 14 14 15 17 18 20 22 24 27 32 38 42 43 46 51 55 60 61 63 63 59 49 34 23 21 21 22
25 24 20 20 22 23 25 26 25 18 18 30 42 50 57 49 40 44 38 32 36 32 36 48 38 28 40 47 46 44 38 31 22 12 11 11 9 8 8 8 8 9 9 8 8 8 7 7 7 7 8 8 9 10 10 11 12 13 15 15 16 18 19 20 21 23 27 32 38 42 46 49 54 58 61 63 64 65 65 61 54 40 26 21 21 25
24 23 19 19 20 20 22 27 30 28 28 38 48 54 53 44 42 42 32 33 42 35 28 33 36 37 41 44 44 38 32 27 19 12 10 9 10 9 8 9 9 9 9 8 8 8 8 8 8 9 10 10 11 12 12 14 14 16 17 18 19 19 20 21 23 26 31 38 44 49 54 58 59 58 58 59 61 62 63 62 59 52 43 38 36 38
30 26 19 17 18 16 16 20 25 29 30 36 50 59 49 37 40 41 36 43 54 50 37 30 32 35 35 41 44 37 33 30 23 15 11 9 10 9 9 10 9 9 9 8 9 9 9 9 10 11 12 13 14 14 15 16 17 18 19 20 21 21 22 24 26 31 39 47 53 56 57 56 53 50 49 49 50 51 54 56 57 57 55 53 51 48
44 42 31 22 20 19 18 17 18 21 20 22 33 42 35 31 40 42 43 50 54 50 41 33 28 25 29 40 45 38 32 26 19 13 10 10 10 9 9 10 9 9 10 9 10 11 11 12 13 14 14 15 16 17 18 19 20 21 21 22 23 23 25 27 33 43 50 55 54 49 44 41 38 36 36 38 39 40 43 47 48 49 50 49 46 43
42 41 34 25 23 24 22 18 17 19 20 19 22 25 23 25 30 32 35 40 38 34 31 28 23 20 22 28 30 28 22 15 12 11 10 10 10 10 11 10 10 11 10 11 12 12 13 13 14 16 17 18 19 19 20 21 22 24 25 25 26 27 31 38 47 52 52 47 41 34 30 27 25 24 26 29 32 33 35 37 38 38 36 34 30 25
33 33 31 27 25 24 23 20 19 20 19 17 17 17 18 19 20 22 23 22 21 22 22 21 18 17 20 23 24 22 16 12 12 11 10 11 10 10 11 10 11 12 11 12 13 13 14 15 16 18 19 20 21 22 24 25 26 27 27 28 31 37 44 50 52 49 42 36 30 24 20 18 17 17 20 23 25 27 28 27 27 25 23 20 16 12
26 28 29 29 28 27 27 25 24 24 21 18 16 16 16 17 17 18 18 17 18 19 18 17 15 14 16 19 19 17 13 12 12 11 11 11 10 10 11 12 13 13 13 14 15 17 18 19 21 22 23 24 25 27 28 29 29 31 33 37 43 48 50 49 45 38 31 25 19 14 12 12 12 15 18 21 23 23 23 22 21 19 17 15 12 10
20 22 23 22 22 23 23 24 25 26 25 23 22 20 18 18 18 17 17 18 19 18 17 16 15 15 15 16 14 14 15 15 14 13 13 12 12 13 14 16 17 18 20 22 23 25 25 26 27 27 28 30 31 32 33 34 36 40 43 46 48 47 44 39 32 25 18 13 10 9 10 10 11 14 18 20 21 21 21 20 19 16 14 13 13 12
21 22 23 22 21 20 20 21 22 23 24 24 26 27 26 25 24 22 21 21 21 21 19 17 17 16 16 15 14 15 18 18 16 16 15 14 15 16 18 22 25 27 29 30 31 31 31 32 33 33 34 36 37 39 41 43 45 47 46 44 41 36 31 25 19 13 10 8 8 8 8 9 12 15 18 19 20 21 20 19 17 16 15 15 15 14
25 26 27 26 26 25 25 26 25 24 24 24 25 28 29 29 29 28 27 28 28 27 24 21 19 18 17 16 16 16 17 18 17 17 17 18 20 22 27 30 32 33 33 33 34 34 34 35 36 37 39 40 41 44 45 45 43 40 37 32 27 23 19 14 11 9 8 8 8 8 9 11 14 16 18 19 20 21 21 20 19 18 18 16 15 15
27 27 28 28 29 30 31 30 29 28 28 27 27 27 28 30 30 29 28 28 29 32 31 27 22 20 20 19 18 18 18 18 19 19 19 22 26 30 32 33 33 33 33 35 36 36 37 38 38 39 39 40 41 40 38 35 29 24 21 17 14 13 11 10 9 8 8 8 8 9 11 13 15 17 18 20 22 22 21 21 20 19 18 17 17 18
26 26 27 27 28 31 33 33 31 29 30 30 28 27 28 29 28 27 25 23 24 29 33 32 28 24 24 23 22 22 22 22 23 24 24 28 31 33 34 34 34 34 36 38 39 37 37 38 38 38 38 36 33 28 23 19 14 11 10 9 9 9 9 9 8 8 8 9 9 11 13 15 16 18 20 22 22 22 22 21 21 20 18 19 19 20
21 23 25 25 27 29 31 31 30 28 29 30 26 22 21 22 22 21 20 20 22 25 29 36 36 30 25 25 26 26 26 27 30 31 31 32 33 34 34 34 34 36 38 39 36 34 34 34 35 35 31 27 20 13 9 7 7 7 7 7 8 8 8 8 8 8 9 9 11 13 14 16 17 19 21 22 22 22 22 22 22 20 20 21 21 21
17 19 22 23 25 28 30 30 29 27 28 26 23 20 19 19 19 19 19 21 24 24 25 32 36 34 28 26 27 28 29 31 33 34 34 33 33 34 34 35 36 37 37 36 34 35 36 35 34 30 24 17 12 7 5 5 5 6 6 7 7 6 7 7 8 9 10 11 13 14 15 17 18 20 20 21 22 23 23 24 23 22 22 22 22 22
15 16 18 20 21 23 27 29 28 27 26 24 23 22 20 19 20 20 21 25 27 25 24 26 31 33 31 27 26 27 29 31 31 31 33 33 34 34 35 37 39 38 36 35 35 37 38 35 31 26 20 14 10 8 6 6 6 7 6 6 6 7 7 8 9 10 10 12 14 15 16 17 18 19 20 21 22 23 24 24 23 23 23 23 24 24
13 14 15 17 18 20 24 26 27 26 26 26 26 25 22 21 22 21 22 27 28 25 24 24 26 29 29 28 28 28 28 29 29 29 32 34 34 35 37 40 41 38 35 34 34 35 34 30 26 20 15 11 9 8 7 7 8 7 7 7 7 7 8 9 9 10 11 13 15 15 16 17 17 19 20 21 22 22 24 24 23 23 23 24 25 25
13 14 15 15 15 18 22 24 27 28 28 29 28 27 26 24 23 23 23 25 26 23 22 22 23 24 25 27 30 31 29 29 29 30 33 35 35 37 39 42 42 38 34 34 34 32 28 24 19 15 11 9 7 7 8 7 7 6 7 7 7 8 9 9 10 11 12 13 14 16 17 17 18 19 19 20 20 21 23 23 22 23 23 25 27 27
13 14 15 14 14 17 20 23 26 27 28 31 30 29 28 27 25 24 23 24 24 24 23 22 22 24 24 26 31 33 31 31 32 33 35 36 37 39 43 45 42 37 35 34 32 28 23 17 13 10 8 8 7 8 8 7 7 7 7 8 8 9 10 10 11 12 12 13 15 16 18 19 19 19 19 19 20 22 23 22 22 23 24 26 27 27
13 13 14 13 13 16 18 20 23 24 26 29 30 29 29 29 27 26 24 24 25 25 24 24 24 25 27 28 32 34 35 35 34 34 36 37 38 41 45 44 38 34 34 33 28 22 17 13 10 9 8 8 8 8 8 7 8 8 8 9 9 10 10 11 12 12 13 15 16 17 19 20 20 19 19 20 21 22 23 23 23 25 26 27 28 28
12 13 14 12 12 14 16 17 19 21 22 24 26 28 30 29 28 28 26 26 26 26 26 27 27 27 29 31 33 36 37 37 36 36 36 37 39 42 45 42 37 34 34 28 20 14 11 9 9 8 8 8 8 7 7 8 8 8 9 10 10 10 11 11 12 14 15 15 16 18 20 21 21 21 20 21 22 22 23 24 24 26 27 28 29 30
12 12 12 11 10 11 12 13 16 17 17 19 21 25 28 28 28 29 27 27 28 27 27 28 29 30 31 32 35 37 38 38 37 37 36 37 40 44 45 42 39 38 36 27 15 9 8 7 6 6 6 6 6 6 6 7 7 9 10 10 10 10 11 12 13 14 15 16 17 19 20 21 21 22 22 21 22 22 23 24 25 26 28 29 30 31
11 11 11 9 9 9 9 10 13 14 14 14 17 21 23 24 27 28 28 29 30 29 29 30 30 31 32 34 36 38 39 39 38 37 37 38 42 46 46 43 41 39 34 24 15 9 7 6 5 5 5 5 5 6 7 7 8 9 10 10 11 11 12 13 14 15 16 18 18 19 20 21 21 22 22 22 22 22 23 24 26 27 29 30 31 31
11 10 10 8 8 8 8 9 10 13 13 12 14 17 18 18 22 25 27 29 31 31 32 32 32 32 33 34 36 38 39 40 39 38 38 39 43 46 45 42 42 38 29 19 13 9 7 6 6 5 5 6 7 8 8 8 9 10 10 11 12 12 13 14 15 17 18 18 19 20 21 22 22 22 23 23 23 23 23 25 26 28 30 31 32 32
10 10 10 9 8 8 8 8 9 11 12 11 13 15 15 14 17 21 25 28 31 33 34 34 34 34 34 34 36 38 39 40 39 38 38 40 43 43 42 42 42 37 26 17 12 9 7 7 7 7 7 8 8 9 9 10 11 11 12 13 14 14 15 16 17 19 20 20 21 22 22 22 22 23 23 24 23 23 24 25 27 29 31 31 32 34
10 11 10 9 8 8 8 8 9 11 11 11 12 14 14 12 13 17 22 26 29 32 34 35 35 35 35 36 37 38 39 40 38 37 38 40 41 40 40 43 43 37 27 17 11 9 8 9 9 10 10 10 10 10 11 11 12 13 14 15 16 16 17 18 20 21 22 23 23 23 23 24 24 23 24 24 23 24 24 26 28 30 31 33 34 35
11 11 11 9 8 8 9 9 10 10 10 11 12 14 13 12 12 14 16 20 26 30 31 33 35 36 37 37 38 38 38 38 36 36 38 39 37 36 38 41 41 36 27 18 13 10 10 9 10 11 11 12 12 11 11 11 12 14 16 16 17 17 18 20 22 23 25 25 25 26 26 26 26 25 25 25 25 25 26 27 29 31 32 34 35 36
11 11 11 10 8 8 9 9 10 10 10 10 11 12 12 12 13 14 14 17 23 27 29 31 33 35 35 36 37 38 37 36 36 37 37 35 33 33 36 38 37 31 23 16 12 11 10 10 11 12 12 12 12 11 11 11 13 15 16 16 16 18 19 22 24 25 27 28 28 29 29 28 28 28 28 27 26 27 28 28 30 33 34 35 37 38
12 11 10 9 8 8 9 9 9 10 10 9 10 11 11 12 13 14 15 17 21 26 28 31 34 36 36 36 38 38 38 38 38 36 34 31 29 31 34 36 33 27 19 14 11 10 10 10 11 12 12 12 12 12 12 13 15 16 17 18 19 21 23 24 26 28 29 30 31 31 32 32 31 30 30 29 28 28 29 31 32 34 36 37 39 40
12 11 10 8 7 8 8 8 9 9 8 9 9 9 10 11 11 13 14 17 21 24 25 28 32 35 36 37 38 40 39 37 36 35 33 30 26 26 30 33 30 23 16 13 11 9 9 9 9 11 12 12 13 14 14 15 16 17 19 21 23 25 26 27 28 29 31 33 34 35 36 35 34 33 32 31 30 30 31 33 35 36 38 40 41 42
12 10 8 7 7 8 7 7 8 8 8 8 8 9 9 9 9 10 12 16 21 24 26 28 30 33 37 39 39 40 40 38 37 37 36 32 27 25 27 30 27 20 15 12 10 9 8 8 8 10 12 13 15 16 16 17 18 20 23 26 27 28 29 30 31 32 34 36 38 39 39 37 36 36 34 33 33 33 34 36 38 39 41 43 44 45
9 8 7 7 7 7 8 7 7 7 7 8 8 8 8 8 8 9 10 13 19 23 27 30 32 35 40 42 42 42 40 39 39 40 38 33 28 25 27 29 27 20 15 12 10 9 8 8 9 11 13 15 17 19 19 19 21 24 27 29 30 31 31 33 35 36 37 39 41 41 41 40 39 38 37 36 36 35 37 40 42 43 44 45 47 49
7 6 6 6 6 7 7 7 7 7 7 8 8 8 8 8 8 9 9 11 15 20 25 30 33 36 39 40 40 41 39 37 38 39 37 34 30 27 29 31 28 20 15 13 11 10 10 10 11 13 15 19 22 23 22 23 25 28 31 33 35 35 35 37 39 39 39 40 42 43 44 44 43 42 41 40 40 39 40 41 42 45 47 49 50 52
Wind_Speed
8 5 5 8 9 10 8 7 12 14 13 12 10 10 9 10 9 5 2 4 4 3 4 3 2 2 4 4 6 7 7 8 10 12 11 9 9 8 6 6 6 5 4 3 3 3 3 4 5 6 7 7 8 9 9 10 11 11 11 12 13 13 13 14 15 15 16 16 16 17 17 17 16 16 16 16 16 16 16 16 17 19 19 20 21 21
12 9 4 6 6 6 7 8 11 13 14 14 12 11 11 11 10 7 4 2 2 3 3 3 5 2 3 3 4 6 6 7 7 7 9 7 7 8 5 4 5 5 4 3 3 3 3 4 5 5 6 6 7 7 8 9 10 10 11 11 12 12 13 14 15 15 16 16 17 17 18 18 18 18 17 17 17 17 16 16 16 17 18 19 20 21
16 14 7 4 2 4 6 6 9 11 12 13 13 13 12 12 10 8 4 1 1 2 2 5 4 2 1 2 2 5 5 6 7 8 9 10 11 10 7 5 4 3 2 1 1 2 2 3 4 4 4 5 5 6 8 9 9 9 9 9 10 11 12 13 14 15 16 16 17 18 18 18 18 18 18 18 18 18 18 17 17 17 17 17 18 19
16 16 10 4 1 2 4 4 7 10 12 13 15 15 15 14 12 8 5 2 2 3 3 3 3 3 3 2 2 4 3 5 8 8 9 10 11 10 9 7 5 4 2 1 1 3 3 3 3 3 4 5 6 7 7 8 8 8 8 8 9 10 11 12 13 14 15 16 17 17 18 18 18 18 18 18 18 18 18 18 18 17 17 17 18 18
16 15 11 5 3 3 4 5 8 10 11 13 15 17 16 15 12 8 6 5 5 5 2 3 4 4 5 6 5 5 4 4 6 7 7 8 8 8 8 8 6 3 2 1 1 3 3 3 2 3 4 5 6 7 7 7 8 8 9 10 10 11 12 13 14 15 15 16 17 17 17 18 18 18 18 18 18 18 18 18 18 18 18 18 18 19
14 13 11 6 4 5 5 6 7 10 11 12 14 16 15 12 9 6 5 6 6 4 1 2 4 3 6 8 7 8 7 5 6 6 7 7 7 8 7 5 4 2 1 1 2 2 3 2 2 3 4 5 6 7 7 8 9 10 11 12 12 13 14 14 15 16 16 17 17 18 18 19 19 20 20 20 20 20 19 19 19 19 19 19 19 20
14 16 15 9 7 8 8 7 6 7 8 8 11 13 12 9 6 4 5 5 5 4 4 5 5 5 5 6 6 8 8 7 7 7 8 7 8 9 7 5 4 3 2 2 3 3 3 2 2 3 5 6 6 7 7 8 9 10 11 12 13 14 14 15 15 16 17 17 18 19 19 20 21 21 21 21 22 21 21 21 21 20 21 21 21 21
17 18 18 13 11 12 11 10 9 9 9 7 7 8 8 6 4 3 5 6 6 6 5 5 8 6 3 4 5 5 5 6 6 6 7 7 7 7 6 5 4 3 1 3 5 5 4 2 2 3 4 5 6 7 7 8 9 10 11 12 13 14 14 15 15 16 16 17 18 19 19 20 20 21 21 21 22 22 22 22 22 22 22 22 22 22
15 15 15 14 14 16 16 14 12 12 11 10 8 6 6 6 6 5 5 7 8 7 6 7 9 6 3 6 6 5 5 5 4 4 5 5 4 5 4 4 3 3 3 5 6 4 3 2 2 3 4 5 6 7 8 9 10 10 12 12 13 13 14 14 15 16 17 17 18 19 20 20 20 21 21 21 22 22 23 23 23 24 24 23 23 23
13 12 12 12 13 18 20 19 17 14 12 13 12 9 9 10 9 9 9 10 9 7 7 8 8 5 4 7 7 6 6 5 5 4 3 3 3 3 4 3 2 4 6 7 4 2 2 2 2 3 5 5 6 7 8 9 10 11 12 12 13 14 15 16 17 17 18 18 19 20 21 21 22 22 22 22 23 23 23 24 24 25 25 25 25 24
12 13 13 11 12 16 19 18 17 17 16 16 16 13 12 12 11 11 12 12 10 9 9 9 8 6 6 6 6 6 5 5 6 6 4 4 4 4 4 3 4 6 7 5 2 1 2 3 3 4 6 6 7 8 9 9 10 11 13 14 15 16 17 18 19 20 20 20 21 22 23 23 24 25 25 25 25 25 25 25 25 26 26 26 26 26
8 13 14 11 10 12 15 15 14 16 18 18 16 14 12 11 11 11 12 13 12 10 10 10 8 7 6 5 5 5 5 6 6 5 4 4 4 4 2 3 5 7 6 3 3 4 5 4 5 6 7 7 8 8 9 11 12 13 15 16 17 18 20 21 21 22 23 23 24 25 25 26 26 26 27 28 28 28 27 27 27 27 27 27 27 27
7 11 13 12 11 10 11 11 10 12 16 16 14 13 12 11 11 12 12 13 13 11 11 11 9 7 6 5 4 4 5 5 5 4 3 3 2 2 2 4 6 5 4 3 5 6 7 5 5 8 8 8 9 9 10 12 14 16 17 18 20 21 23 23 24 25 25 26 27 28 28 29 29 29 29 30 31 31 31 30 30 29 29 29 29 29
8 9 10 11 12 11 9 7 6 9 12 14 12 11 10 10 11 12 12 12 11 11 11 10 8 6 5 4 3 3 3 3 3 2 1 2 3 4 2 3 4 3 3 4 5 8 9 7 6 8 10 10 11 12 13 15 16 18 19 21 22 24 25 25 26 27 28 29 30 31 32 32 33 33 33 33 33 33 33 33 33 32 32 32 32 32
8 6 7 8 9 9 8 7 6 6 9 10 10 9 9 10 11 11 11 10 9 8 8 7 6 5 4 3 2 2 2 2 1 1 2 3 1 2 2 1 1 1 3 3 5 7 10 9 7 8 11 13 14 16 17 18 18 20 21 23 24 26 26 27 28 28 29 31 32 32 33 34 35 35 35 35 35 34 34 34 34 34 34 34 34 34
4 4 5 6 6 6 6 7 7 6 8 8 8 9 10 10 10 9 8 8 7 6 5 6 6 5 4 3 2 2 2 1 1 1 2 2 2 0 2 2 2 3 3 4 5 7 10 11 10 11 13 15 17 19 20 20 21 22 23 24 26 27 27 28 29 29 30 31 32 32 33 35 35 36 36 36 37 37 36 35 35 35 35 35 36 36
1 2 4 5 5 5 6 7 5 4 6 7 7 9 9 8 8 8 6 6 6 5 5 5 5 5 5 3 2 2 1 1 1 1 2 2 2 3 4 5 5 5 5 6 7 9 12 13 13 14 15 17 19 20 21 22 23 24 25 26 27 28 28 28 28 28 30 31 32 32 33 35 36 36 36 37 37 38 37 37 37 36 36 36 36 37
2 2 2 4 4 3 4 4 3 3 4 6 6 5 5 5 6 6 6 5 5 5 5 5 4 4 4 2 1 2 1 2 1 2 4 4 4 5 6 7 7 8 9 10 12 13 16 16 16 16 16 18 19 19 21 23 24 24 25 26 28 29 29 28 28 29 30 31 31 32 33 34 35 36 37 37 38 38 38 38 37 37 37 37 37 37
3 2 2 2 3 2 2 2 3 3 3 6 6 5 4 3 2 1 2 4 4 3 3 4 2 1 1 0 1 1 2 3 4 4 5 6 6 6 7 8 10 11 12 13 13 14 16 17 17 17 17 18 19 20 22 24 25 25 26 27 28 28 29 29 29 30 31 31 32 33 34 35 35 36 37 38 39 39 38 38 37 37 37 38 38 38
5 2 1 1 2 2 2 1 1 2 3 4 4 3 3 1 3 4 4 2 2 2 1 1 1 1 1 1 2 2 3 4 5 6 6 6 7 6 7 8 10 11 12 12 12 13 15 17 17 18 18 19 21 22 24 25 26 26 27 28 28 28 29 29 30 30 31 31 33 35 36 36 37 37 38 38 39 38 38 37 37 37 37 38 38 38
6 4 3 1 0 1 1 1 2 1 1 3 2 1 1 1 3 5 6 6 6 5 3 2 3 2 3 3 4 6 6 6 7 7 6 6 7 7 7 8 9 10 12 13 14 14 16 17 18 19 20 21 22 23 25 26 26 27 28 28 28 28 29 29 29 29 30 31 32 34 35 36 37 38 38 38 38 38 38 38 38 38 38 38 39 39
6 6 6 4 2 3 2 1 1 2 2 0 1 2 2 3 4 6 7 8 10 8 7 7 5 4 4 5 6 7 7 7 7 8 8 8 8 8 9 9 10 11 13 15 16 17 18 19 20 21 21 22 23 25 26 27 27 27 27 28 28 28 29 28 28 28 29 30 31 32 33 35 36 36 37 37 37 37 37 38 38 38 38 37 38 38
5 5 7 6 4 5 5 4 2 1 3 2 2 4 4 4 6 7 8 9 10 10 10 10 9 7 5 5 5 6 6 6 7 8 9 9 10 11 11 11 11 13 14 16 18 19 20 21 21 22 22 23 24 25 26 27 27 27 27 27 28 29 28 28 28 28 29 30 31 33 33 34 34 35 36 36 37 37 37 37 36 36 36 35 35 35
6 5 6 6 5 5 6 6 4 2 3 3 2 4 5 6 7 8 9 9 9 10 10 11 11 9 7 5 5 6 6 7 7 8 9 10 10 11 11 11 12 13 15 16 18 19 20 21 21 21 22 23 24 25 26 27 27 27 27 27 28 28 28 28 28 29 30 31 32 32 33 34 34 36 36 37 37 37 37 36 36 35 34 34 34 34
5 5 6 6 6 6 6 7 6 4 3 3 3 4 5 6 7 8 9 9 9 10 10 11 11 10 8 7 6 7 8 8 9 10 10 10 10 10 11 12 13 14 15 16 17 17 18 19 20 21 22 23 24 25 26 27 27 27 26 27 27 28 28 28 29 29 30 30 31 31 32 34 35 36 36 36 36 36 36 36 35 35 35 35 35 36
5 6 5 5 6 5 5 5 5 5 5 4 4 3 4 5 6 6 7 8 9 10 10 11 11 10 9 8 7 8 9 9 8 9 9 9 10 11 11 12 13 14 15 15 16 17 17 18 19 20 21 22 23 24 24 25 25 25 25 26 27 28 28 28 28 28 29 29 30 31 32 33 34 34 35 35 36 36 36 36 36 36 37 38 39 40
6 7 6 6 5 5 5 5 5 5 4 4 5 5 5 6 6 5 6 7 8 8 8 9 9 8 7 6 6 6 7 6 6 7 7 8 9 10 10 11 12 13 13 14 15 16 17 18 19 19 20 20 21 21 22 22 22 23 24 25 26 26 27 27 27 27 28 30 31 32 32 33 34 34 34 34 35 35 36 37 38 38 39 40 42 43
8 8 7 7 7 6 6 7 6 5 5 5 5 6 6 7 7 7 6 7 8 8 8 8 7 6 5 5 4 5 4 4 4 5 6 6 7 7 8 9 11 12 13 14 15 16 16 17 18 18 18 18 19 19 20 20 21 22 24 24 25 25 26 26 27 28 30 31 32 32 33 34 34 34 34 34 35 36 37 38 39 40 42 43 44 45
8 8 7 7 8 8 8 9 8 8 7 6 6 6 7 7 8 9 8 9 9 9 8 8 8 7 6 6 6 5 5 5 5 5 5 5 6 7 8 10 11 12 13 14 15 15 16 16 16 17 17 17 17 18 18 19 20 21 22 23 24 25 26 27 28 29 30 31 32 33 34 34 34 34 35 36 36 37 38 39 40 42 43 44 45 46
8 8 8 8 8 8 9 9 9 8 8 7 7 8 9 8 9 10 10 10 9 8 7 7 8 8 8 8 8 7 7 7 7 7 6 6 7 9 10 12 12 13 13 14 14 15 15 16 16 16 16 16 17 17 18 19 20 21 22 24 25 25 26 28 29 30 31 31 33 33 34 34 34 35 36 37 38 38 40 41 42 43 44 45 46 47
8 8 8 10 10 10 10 9 9 7 6 5 7 8 8 7 9 11 11 11 9 8 7 6 6 6 6 8 8 8 8 9 8 9 9 9 10 11 11 12 13 14 14 14 14 14 15 15 15 16 16 17 17 18 20 20 21 22 23 24 25 26 27 28 29 30 30 31 32 33 33 34 35 36 37 37 38 40 41 42 43 44 46 47 49 50
8 8 8 9 11 11 10 9 8 7 5 4 6 7 6 5 6 8 10 11 10 9 7 5 5 5 4 5 6 6 6 7 7 8 9 10 10 11 12 13 14 14 13 14 14 14 14 15 16 16 17 18 19 19 20 21 22 22 23 24 25 26 27 28 29 29 30 31 32 33 33 34 35 36 37 38 40 41 43 44 44 45 47 50 52 53
8 8 8 8 9 10 9 9 8 7 6 5 7 8 7 7 7 7 8 10 10 9 6 3 4 5 3 3 3 3 3 4 5 6 8 9 10 11 12 13 14 13 13 14 14 14 15 16 17 17 18 18 19 19 20 21 22 23 24 25 26 26 27 28 28 29 30 31 32 33 34 35 36 37 38 40 41 42 44 45 46 47 49 52 54 56
7 8 8 9 9 10 9 9 8 7 6 6 7 8 9 10 11 11 11 10 10 10 9 5 3 4 4 2 2 3 3 5 7 8 9 10 10 11 13 14 14 14 14 14 14 14 15 15 16 16 16 17 17 18 19 20 21 22 24 24 25 25 26 28 29 30 31 31 32 34 35 36 37 38 40 41 42 43 45 46 47 49 51 54 55 57
7 8 9 10 10 10 10 10 10 10 8 7 8 9 11 12 12 12 13 12 11 12 11 9 6 5 4 2 2 4 5 7 9 9 10 11 11 12 14 15 15 14 14 13 14 14 14 14 14 15 15 16 16 17 18 19 20 21 22 23 24 25 26 28 29 31 32 32 33 34 36 38 39 40 41 42 43 45 46 48 50 51 53 54 55 56
7 8 9 10 11 11 10 9 10 10 10 10 9 10 11 11 11 12 12 12 12 12 12 11 9 8 7 5 2 3 5 7 9 10 10 11 12 13 14 15 15 14 13 13 13 13 14 14 14 15 15 15 15 16 18 20 21 21 22 23 24 25 26 28 30 31 32 33 34 35 36 38 39 40 42 43 45 46 47 49 51 53 54 55 55 55
7 8 9 10 11 11 10 9 9 10 10 10 10 10 10 10 10 10 10 11 11 12 11 11 10 9 9 7 3 3 5 8 10 11 10 11 12 13 15 15 15 13 13 13 13 13 14 14 14 14 14 14 15 17 18 20 20 21 21 22 24 25 27 29 30 32 33 34 35 35 36 38 39 41 43 44 45 46 48 50 52 53 54 55 55 55
8 7 8 10 11 10 9 8 8 10 10 10 9 9 9 9 9 8 9 9 11 11 11 10 9 9 9 8 6 5 6 8 10 10 10 11 13 14 15 15 14 13 13 14 13 12 13 13 12 12 12 13 14 16 18 19 20 20 21 23 24 26 28 29 31 32 33 35 35 36 37 38 39 41 43 45 46 47 48 50 52 53 54 55 55 54
8 7 8 10 10 9 8 8 8 9 10 10 9 10 10 10 10 9 8 7 9 11 11 10 10 10 9 9 8 7 7 8 10 10 10 11 13 15 16 15 14 15 16 16 15 13 12 12 11 11 11 12 14 15 17 19 20 21 23 24 25 27 29 30 31 32 34 35 36 37 37 38 40 41 43 44 46 47 49 50 51 53 53 54 55 55
7 7 8 10 9 9 9 8 8 9 10 10 10 11 11 12 12 12 10 8 9 11 11 11 11 11 10 8 8 8 8 8 9 10 10 11 13 15 15 15 15 16 17 18 17 15 13 13 12 12 13 14 16 17 19 20 22 23 24 25 27 28 30 31 32 33 34 36 37 38 38 39 40 42 43 44 46 47 49 50 51 53 53 53 54 55
6 6 8 10 10 10 10 9 9 9 10 11 11 12 12 13 13 13 12 11 11 12 12 12 12 12 10 9 8 8 8 8 10 10 11 12 13 15 14 14 14 16 16 17 17 17 16 15 14 14 15 17 18 19 20 21 22 23 25 26 28 29 31 32 33 34 35 36 37 38 39 40 41 42 43 45 46 47 49 50 51 53 53 53 53 54
7 8 9 11 12 11 11 10 9 10 11 12 12 12 13 14 15 14 14 13 12 12 12 12 13 13 11 10 10 9 9 9 10 11 12 13 14 15 14 13 14 16 17 16 17 17 17 17 17 17 17 18 19 19 20 21 23 24 26 27 28 30 31 32 33 34 36 37 38 39 40 41 41 42 44 45 47 48 49 50 51 52 53 53 53 54
8 10 11 12 13 12 11 11 10 11 12 12 12 13 14 16 16 16 15 14 13 12 11 11 12 13 13 13 12 12 11 12 12 13 13 15 15 15 13 13 15 17 17 17 16 16 16 16 17 17 18 19 19 20 21 22 23 25 26 28 29 30 31 33 34 35 36 38 39 40 40 41 42 43 44 45 47 48 49 50 51 52 53 53 54 54
8 10 12 13 14 13 12 11 11 12 13 13 13 14 16 17 17 16 15 14 12 11 11 11 11 12 13 13 13 12 13 13 14 15 15 17 17 16 14 14 15 17 18 17 17 16 16 16 16 17 18 19 19 20 21 22 23 25 27 28 29 31 33 34 35 36 37 38 40 41 41 42 42 43 44 46 47 48 49 50 51 52 53 54 54 54
9 11 12 13 14 13 12 11 11 12 12 12 12 14 16 17 18 18 17 15 13 12 11 11 10 11 12 12 12 12 12 14 15 16 17 17 17 16 15 15 15 16 17 17 17 17 17 17 17 18 18 18 19 20 22 23 25 26 27 29 31 33 35 36 37 37 38 39 40 41 42 42 43 44 45 46 48 48 49 51 51 52 53 54 54 54
10 12 13 14 14 13 12 12 13 12 12 11 11 13 15 16 17 18 19 17 15 13 12 12 11 11 12 12 12 13 13 14 16 17 17 17 16 15 16 16 15 15 16 16 17 17 17 17 18 19 19 19 20 22 24 25 26 27 29 32 34 35 36 37 38 39 39 40 41 42 43 43 44 45 46 47 48 49 50 51 52 53 53 54 54 54
11 13 14 14 14 13 12 13 13 13 13 12 11 12 13 14 15 17 18 18 17 15 13 11 11 12 12 12 13 14 15 16 16 17 18 18 16 16 16 17 16 16 16 16 17 17 17 17 18 19 20 21 22 23 25 26 27 29 32 34 35 36 37 38 39 40 41 41 42 43 43 44 45 45 46 47 48 49 50 51 53 54 54 54 55 55
14 16 15 15 14 14 13 13 13 14 15 14 13 12 13 14 14 15 16 17 17 16 15 13 12 12 13 14 14 15 16 18 18 19 20 20 19 18 17 18 18 17 17 17 18 18 18 19 20 21 22 23 23 25 27 28 30 31 33 34 36 37 38 39 40 42 43 43 43 43 44 45 46 46 47 48 49 50 51 51 53 54 55 55 56 55
16 17 16 15 14 14 15 15 15 16 16 15 15 15 15 15 16 16 16 16 17 17 17 16 16 15 16 16 16 17 18 20 20 21 22 22 21 20 19 19 19 19 19 19 19 20 20 21 22 23 24 25 25 26 28 30 32 33 33 34 36 37 38 40 41 43 44 44 44 44 45 46 47 47 48 49 50 51 52 53 53 54 55 56 57 57
17 17 15 15 14 14 15 16 17 17 18 17 17 18 18 18 18 18 17 17 17 17 17 17 17 16 16 17 18 19 20 21 21 22 22 23 23 21 20 20 21 21 21 21 21 22 22 22 23 24 25 26 26 28 30 32 33 33 33 34 36 37 39 41 42 44 45 45 45 45 46 48 48 48 49 50 50 51 52 53 54 55 56 57 58 59
17 16 15 15 15 15 15 16 16 17 18 18 19 20 20 20 21 20 19 19 18 18 17 17 16 16 16 17 19 20 21 22 23 23 23 23 23 23 22 21 22 22 22 23 23 23 23 23 24 25 26 26 27 29 32 33 33 33 34 35 36 38 40 42 43 45 46 47 47 47 48 49 49 50 50 50 51 51 52 53 53 55 57 58 59 59
Wind_Direction
35 52 126 156 166 178 194 217 224 226 232 248 268 277 284 291 292 290 156 112 78 34 24 49 111 45 11 42 87 110 139 151 153 162 170 162 148 152 156 139 122 110 105 94 74 47 28 4 355 357 4 13 16 13 11 11 12 9 6 5 4 3 2 3 4 5 5 4 3 2 2 1 359 356 352 347 341 334 327 319 312 306 302 298 294 292
15 23 85 150 162 176 189 206 213 217 226 236 248 258 268 279 283 283 273 296 351 317 300 126 116 69 3 29 93 113 124 145 147 151 162 162 150 150 149 123 103 90 86 75 54 38 17 351 348 357 5 12 14 15 18 20 20 18 15 14 14 14 14 13 12 11 11 9 7 6 6 5 4 3 1 358 355 351 347 341 333 324 317 309 303 297
6 11 34 90 134 159 167 195 208 211 219 228 238 244 254 262 265 268 260 218 325 270 188 132 112 102 57 33 106 127 122 135 144 156 169 168 154 145 134 116 107 104 102 72 34 4 344 344 349 358 10 16 21 24 24 25 25 22 19 17 15 14 13 11 10 8 7 6 4 4 3 2 2 2 1 0 358 355 353 351 347 342 335 328 320 311
3 6 17 28 5 105 116 149 188 200 207 216 228 236 241 246 246 241 222 180 189 187 143 95 106 143 156 149 145 141 139 139 144 157 166 161 153 148 148 148 156 168 163 153 351 337 331 345 2 14 27 31 32 28 22 20 19 16 11 8 6 5 4 2 2 1 0 359 358 357 357 357 356 356 356 356 355 353 351 349 347 344 341 338 333 327
11 13 24 31 35 56 85 124 154 171 185 202 220 231 234 236 238 236 227 210 189 174 124 66 101 145 161 158 161 165 175 161 142 143 146 148 146 149 161 161 161 176 175 163 324 320 318 338 13 34 34 28 24 18 13 7 3 1 358 356 355 355 355 354 353 354 354 354 352 352 351 350 350 350 350 349 349 348 347 345 342 340 338 336 334 332
22 32 41 44 63 86 116 135 140 144 162 187 209 226 235 240 245 250 244 220 198 192 178 118 118 144 161 157 158 160 168 165 145 139 142 145 137 139 156 153 144 172 207 242 287 298 305 328 358 16 17 14 11 6 2 357 352 351 349 348 347 348 348 348 347 348 348 348 347 347 347 346 346 345 344 343 343 342 341 340 338 336 334 332 331 330
47 48 50 60 85 93 102 114 124 131 147 174 196 216 232 246 259 257 242 219 201 192 177 164 151 147 158 163 161 156 158 155 145 142 141 140 135 139 150 150 159 196 224 270 300 307 305 309 323 347 357 357 357 352 348 346 341 340 339 340 340 341 342 341 341 341 340 341 341 342 342 342 342 340 339 339 338 337 336 334 333 331 330 329 327 326
56 47 46 59 83 89 87 94 108 116 127 144 166 189 205 221 227 222 222 202 174 161 158 160 153 143 141 161 165 156 150 138 133 137 132 132 137 146 159 165 178 204 231 280 292 292 286 288 313 338 344 339 337 334 331 330 328 328 330 333 334 334 335 334 334 334 333 334 335 336 336 335 335 334 333 333 332 331 330 329 328 327 326 325 324 323
59 50 49 59 81 92 90 87 89 99 118 130 132 142 149 158 165 166 177 169 153 146 148 146 148 149 138 145 155 157 146 128 124 128 125 137 150 159 177 178 185 214 242 264 273 263 255 276 316 324 320 315 316 317 317 317 319 323 326 328 330 330 330 329 330 331 331 331 331 331 331 330 329 328 327 326 325 325 324 323 323 322 322 321 321 319
71 69 70 69 77 86 86 81 81 90 113 123 115 112 119 125 134 137 142 150 150 146 141 134 146 164 148 141 152 155 151 151 164 171 157 169 187 188 194 184 189 236 253 260 259 218 236 282 306 308 303 301 306 308 310 315 319 323 324 326 328 329 331 332 333 332 332 331 329 328 327 326 325 324 323 321 320 319 318 318 318 318 318 317 317 316
86 90 84 78 77 81 82 79 81 91 101 105 104 105 108 112 114 116 125 137 142 138 133 132 145 154 139 142 157 158 164 180 190 194 186 199 216 207 199 171 189 229 244 253 266 289 285 299 307 303 298 300 305 307 311 317 321 324 326 329 332 334 335 335 334 334 334 332 330 328 327 326 325 324 323 321 318 317 315 314 314 313 313 313 313 312
89 93 90 91 87 83 85 80 79 92 97 97 100 102 100 101 101 103 115 127 130 131 135 138 135 123 117 135 158 169 192 207 210 210 208 222 223 212 196 155 186 217 235 257 287 293 294 306 309 301 299 304 307 310 316 322 326 330 333 334 336 337 336 335 335 335 334 332 330 329 328 326 325 324 322 320 318 316 314 313 311 310 309 308 308 307
85 87 91 96 96 93 94 92 87 96 104 104 105 104 101 103 102 103 115 125 126 127 132 132 123 114 116 131 160 184 203 218 225 225 223 222 192 163 148 149 171 202 227 258 276 286 294 307 309 301 302 307 310 316 324 330 334 336 335 335 335 336 335 335 335 335 334 331 330 330 329 328 326 325 322 320 318 317 315 313 310 308 306 305 304 303
87 79 79 84 91 93 94 101 103 107 111 111 108 105 103 104 104 107 117 121 124 129 131 127 119 116 117 125 163 202 222 228 224 222 213 193 138 118 135 149 152 183 215 243 268 285 294 303 308 304 308 315 320 328 335 338 336 335 333 333 334 335 334 334 335 335 332 331 331 331 330 329 328 326 324 321 319 317 315 312 310 308 306 304 303 302
84 75 72 71 76 83 90 102 118 123 118 111 108 105 104 104 103 107 118 119 116 120 124 119 109 105 109 126 164 213 243 233 197 197 213 228 216 123 129 128 127 220 236 255 277 287 293 299 309 315 319 326 331 336 339 337 334 332 332 333 333 333 333 333 334 334 331 330 330 331 330 329 328 326 324 320 318 315 313 310 309 307 306 304 303 301
76 84 85 74 61 67 83 96 115 128 118 114 118 115 113 113 108 111 125 127 113 104 109 110 109 112 119 129 147 175 209 194 142 212 231 257 280 19 62 14 328 291 280 286 293 294 295 306 324 333 332 333 336 338 336 332 330 331 332 332 331 331 332 333 333 332 329 328 329 329 328 328 326 324 322 319 317 314 312 309 307 306 304 303 302 301
72 95 90 89 74 66 69 77 96 110 107 117 125 119 117 122 123 126 136 133 122 121 127 124 120 122 121 114 132 170 189 54 58 290 299 313 334 356 348 331 311 301 305 310 315 314 312 322 336 340 337 336 337 336 331 328 329 331 332 331 330 330 331 332 330 328 326 327 328 328 327 326 324 322 320 318 316 314 311 308 306 305 304 303 302 301
122 150 126 109 99 81 76 79 76 44 47 77 81 82 95 105 118 131 145 147 138 138 142 135 121 118 117 106 155 199 264 345 334 308 315 327 341 340 327 318 315 320 326 328 330 329 326 330 338 340 339 337 335 331 326 325 327 330 330 330 329 329 329 329 328 326 327 327 327 326 326 324 322 321 319 317 316 314 312 309 307 305 304 304 303 302
98 151 198 139 124 106 82 68 77 69 57 60 49 45 63 48 28 90 158 153 136 136 153 151 128 103 121 44 325 289 323 336 325 324 335 339 340 336 327 325 329 334 333 331 331 328 327 331 335 339 338 335 331 327 324 324 326 328 329 329 330 329 328 328 327 328 328 327 326 325 324 322 321 320 319 318 316 315 314 312 309 307 306 305 304 303
48 67 274 198 160 107 81 352 7 64 83 72 58 64 81 9 319 315 303 308 31 41 120 160 298 311 293 320 333 326 331 332 328 332 341 342 336 335 333 333 335 333 327 326 329 330 330 333 336 338 337 333 329 325 324 325 327 329 330 331 330 329 328 328 329 330 329 328 327 325 324 323 323 323 322 320 318 316 314 312 310 308 307 306 305 304
38 43 13 338 292 62 116 225 281 297 68 97 107 99 100 226 269 288 296 316 337 349 6 346 319 300 310 330 331 328 330 331 333 337 339 340 339 340 341 340 336 329 324 329 335 337 336 336 337 337 335 331 327 324 325 327 331 333 332 332 330 329 328 329 330 330 329 327 325 324 324 324 325 325 323 321 320 318 316 314 313 312 310 309 309 308
35 44 35 24 16 29 42 52 289 277 285 248 189 258 271 237 245 274 298 320 330 335 340 337 329 316 327 342 337 331 331 330 332 335 337 343 347 348 349 346 340 334 334 338 340 340 339 338 337 336 333 328 326 326 328 331 334 333 332 331 330 328 329 330 331 329 327 326 325 326 326 326 326 325 324 323 323 322 321 320 319 318 317 316 314 313
40 51 55 50 37 37 43 44 47 311 307 319 287 281 281 262 266 286 305 318 323 326 328 330 329 329 336 345 346 342 335 328 329 333 340 349 353 353 353 349 343 342 342 341 341 340 338 335 334 332 329 326 327 329 331 333 333 332 332 331 328 328 331 332 331 329 329 329 329 329 329 328 327 327 326 326 326 326 325 325 324 324 322 321 320 318
56 53 59 61 54 51 49 45 54 41 332 330 315 296 288 278 281 294 305 309 310 314 318 322 326 334 336 331 333 334 332 334 339 343 347 352 354 354 350 347 344 343 342 340 338 336 332 329 327 327 326 327 329 331 332 332 332 333 333 331 329 331 333 333 332 332 332 332 331 330 330 329 329 329 330 330 329 329 328 327 327 327 326 324 323 322
68 56 46 45 45 49 46 39 44 44 11 350 340 316 297 288 290 298 303 305 307 311 316 318 325 338 344 340 334 329 334 345 348 348 350 349 350 350 347 345 343 340 338 336 332 328 325 324 324 326 328 330 332 332 331 331 332 333 332 331 331 333 334 334 334 334 333 332 331 330 330 331 332 332 332 331 330 329 328 328 328 327 326 325 323 322
70 66 53 42 39 41 43 38 34 34 24 11 6 357 328 308 307 308 308 310 313 314 314 314 321 337 347 345 336 330 336 344 341 341 346 344 343 344 342 340 338 336 334 330 328 327 326 325 326 329 331 331 331 330 331 332 334 333 332 332 333 335 335 335 334 333 332 331 331 331 332 333 333 333 332 331 330 330 329 329 328 326 325 323 322 321
64 63 56 46 40 35 37 41 38 35 27 11 8 11 358 340 332 330 325 318 315 313 313 315 321 333 337 329 325 328 330 332 333 339 341 338 337 337 334 332 331 332 331 329 329 331 330 328 328 330 331 330 330 331 333 335 335 333 332 333 334 335 335 335 334 333 331 331 331 332 333 334 334 333 333 332 331 330 329 329 327 326 324 323 322 321
57 54 44 34 30 26 24 26 24 22 15 7 11 9 356 342 334 332 327 317 314 319 327 328 324 327 324 316 326 334 326 330 345 345 339 338 335 330 327 329 332 335 334 334 335 333 329 328 328 329 329 330 331 333 334 334 334 333 333 334 335 336 336 335 334 332 331 331 333 334 334 334 334 333 334 333 332 331 330 328 326 325 324 324 324 323
49 43 33 24 20 16 14 12 8 5 359 0 10 4 350 337 327 325 323 318 320 329 337 336 329 330 332 333 341 342 337 349 356 343 340 348 344 338 338 340 340 339 339 338 334 328 325 325 325 326 327 330 333 335 334 335 336 336 335 336 338 339 338 336 334 333 333 333 334 335 335 334 334 335 335 334 333 331 329 328 327 327 327 327 327 326
47 38 28 24 21 16 11 2 356 356 352 352 2 359 347 334 324 325 323 322 325 330 332 332 332 336 339 339 344 347 346 353 355 344 348 360 356 350 347 344 341 338 339 336 328 323 324 326 327 329 333 336 338 338 337 339 341 341 340 341 342 341 338 336 335 335 335 334 334 335 334 334 335 336 335 334 332 330 329 329 330 330 329 329 330 330
49 41 27 23 23 20 13 360 350 351 350 347 356 357 347 330 324 323 323 325 331 332 329 328 330 337 338 334 339 346 346 350 351 344 349 357 354 350 347 342 338 338 338 333 326 326 330 332 334 337 340 342 343 342 341 344 347 347 345 345 344 342 339 337 337 336 336 335 335 335 335 336 336 336 334 333 331 330 330 331 332 332 332 332 333 333
47 44 31 22 22 22 17 4 353 354 1 356 355 359 359 352 341 331 329 336 341 340 337 326 312 312 320 324 330 340 345 346 341 334 339 346 346 344 343 339 336 337 336 331 329 332 335 338 342 343 343 344 344 344 346 349 350 349 347 346 345 343 340 338 337 337 336 336 336 335 336 336 336 335 333 332 332 332 332 333 334 334 335 335 336 335
32 39 38 28 27 32 28 16 4 3 6 0 358 0 4 11 14 3 356 354 347 344 351 337 287 284 288 299 314 331 339 326 316 321 332 337 337 338 339 336 335 336 334 331 335 340 341 343 345 344 343 342 343 345 348 350 350 348 347 346 345 343 340 338 337 337 337 338 337 336 336 336 335 334 333 332 333 333 334 334 335 336 337 337 337 337
19 29 36 32 33 39 36 24 19 20 17 7 4 2 4 13 16 13 14 10 356 356 8 6 311 288 282 274 302 338 340 321 320 331 334 332 333 335 336 335 335 334 334 337 343 344 342 341 342 340 338 339 340 343 345 347 347 346 345 344 343 342 340 339 338 338 339 339 337 335 335 335 334 333 333 333 333 334 335 336 337 338 338 338 338 337
17 22 26 28 31 36 32 24 23 24 21 17 16 11 8 13 14 10 10 7 359 360 3 358 347 331 317 310 320 330 326 317 318 327 329 327 330 334 334 334 334 333 337 343 345 341 336 337 337 336 335 337 340 341 341 342 344 344 343 342 342 342 340 339 338 338 339 338 337 335 335 334 333 333 332 333 334 335 336 336 337 338 338 339 339 338
16 18 20 22 26 29 26 21 22 24 20 17 17 15 10 9 12 9 3 357 355 356 355 353 349 340 338 355 349 292 299 306 310 317 321 324 328 330 332 332 331 332 338 343 341 335 333 335 334 333 334 337 339 340 340 341 342 342 342 341 341 341 340 339 338 338 338 337 336 335 334 333 332 332 332 333 334 335 335 336 336 337 337 338 339 338
8 17 18 19 24 27 22 15 16 20 18 15 13 12 9 6 7 5 356 349 349 351 353 353 347 336 340 357 359 293 295 302 304 309 316 323 326 328 329 328 326 329 337 339 335 330 330 330 329 330 332 335 338 339 339 339 338 338 339 339 339 339 339 339 338 338 337 336 336 335 333 331 331 331 332 333 334 334 335 335 336 336 337 337 338 338
3 14 12 12 22 30 26 16 14 14 12 10 9 9 7 2 1 1 357 346 339 342 350 350 343 340 345 351 346 325 311 301 297 303 313 321 324 324 324 323 321 325 331 331 326 324 324 323 323 325 328 332 335 337 336 334 332 334 337 338 338 338 339 339 338 337 336 335 335 333 332 331 330 331 332 332 333 333 334 334 334 335 336 336 337 337
357 2 360 2 15 29 29 22 16 11 5 2 4 7 4 359 359 2 1 345 329 334 344 343 336 341 348 346 337 328 317 302 297 303 313 320 321 320 320 320 320 324 328 326 323 323 322 318 320 325 328 330 333 333 332 331 332 335 337 337 338 338 338 338 338 336 335 334 333 333 332 330 330 330 331 331 331 331 332 332 333 334 334 335 335 336
346 348 350 353 3 15 20 19 15 8 1 358 0 2 360 359 358 359 360 350 333 333 341 338 332 337 343 341 333 323 314 302 299 305 312 315 316 316 317 318 319 322 324 320 317 319 320 320 325 332 332 332 333 333 332 332 333 335 336 337 337 338 338 338 337 336 334 333 333 332 331 330 330 329 329 329 329 329 330 331 331 332 333 334 334 334
338 341 345 348 352 359 4 9 10 5 1 1 0 357 355 358 357 355 358 356 342 337 339 334 331 335 338 335 330 322 313 305 303 306 309 312 312 311 311 310 310 312 314 313 314 318 321 322 327 330 331 331 331 331 331 332 333 334 335 337 338 338 338 338 336 335 334 333 332 331 331 330 329 328 328 327 327 328 328 329 330 331 331 332 333 333
334 342 345 343 345 349 353 356 359 1 2 3 358 351 351 355 355 354 358 358 349 342 338 330 327 331 334 332 330 325 318 311 307 306 308 309 308 305 303 304 305 308 313 315 316 318 318 320 323 326 327 327 327 328 329 331 333 334 335 337 337 337 337 336 335 334 333 332 332 331 331 330 328 327 327 326 326 326 327 328 329 330 330 331 331 332
334 339 342 340 340 344 348 349 351 357 2 1 353 345 346 351 352 351 353 354 350 344 336 327 323 324 327 331 331 327 322 314 307 305 306 306 304 302 303 305 307 310 313 312 312 312 311 312 315 317 318 319 322 325 329 331 333 334 334 335 336 335 335 334 334 333 332 332 332 331 330 329 328 326 325 325 325 325 326 327 328 329 329 329 330 331
335 334 337 337 337 341 345 345 346 352 357 357 350 341 340 345 347 346 347 349 350 344 335 328 323 320 322 326 325 320 315 307 304 306 308 307 305 305 305 305 305 307 307 306 307 307 305 305 306 306 310 314 319 324 327 330 331 331 332 332 333 332 332 333 333 333 332 331 331 330 329 328 327 326 325 324 324 325 326 327 328 328 328 328 329 330
330 328 330 333 336 339 341 338 341 348 352 353 346 333 332 338 340 340 342 347 350 346 339 332 327 321 318 317 314 310 307 304 306 308 307 303 302 301 299 297 298 301 301 300 302 303 302 302 303 304 308 312 317 322 325 326 328 328 328 329 329 330 331 331 331 331 331 331 330 330 329 328 327 326 325 324 324 325 325 326 327 327 327 327 328 329
325 321 325 331 333 334 333 332 336 341 343 345 340 328 326 331 332 333 336 340 343 343 340 335 330 325 320 317 314 311 308 306 305 303 299 298 298 296 292 291 293 295 295 294 294 296 297 298 301 304 308 313 318 320 322 323 324 325 325 326 327 329 329 329 329 329 329 329 329 329 329 328 326 325 324 324 324 324 325 326 326 326 327 327 327 328
319 317 324 330 328 326 326 327 329 330 331 335 334 326 323 325 325 326 329 331 334 336 337 334 327 321 318 317 314 309 305 302 301 300 301 303 302 297 293 292 294 295 293 291 291 293 295 297 301 306 310 314 317 318 319 321 322 322 323 325 327 328 328 328 328 327 327 328 329 329 328 327 326 325 324 324 324 324 325 325 325 326 326 326 327 328
314 315 323 325 322 321 322 322 322 322 324 330 332 327 324 323 322 323 325 325 326 329 333 334 328 321 318 318 314 309 305 305 307 309 310 308 305 300 296 295 296 296 295 295 297 298 299 302 306 309 312 315 317 318 318 319 320 322 323 325 326 327 327 327 327 327 327 328 329 328 327 326 325 326 325 325 325 325 325 325 325 325 325 325 326 327
308 312 318 319 318 320 320 320 320 320 323 328 329 326 324 322 322 324 324 323 323 326 328 330 327 324 321 318 315 311 308 308 311 312 309 306 304 302 299 297 298 298 298 299 300 300 301 305 310 312 314 315 317 317 317 318 320 322 324 325 326 327 327 327 327 327 327 328 328 327 326 325 325 326 326 325 325 325 325 325 324 324 325 325 325 326
303 309 315 315 316 319 319 319 320 320 323 327 326 324 325 324 324 325 325 324 322 322 324 324 323 321 317 312 310 309 307 308 309 308 305 304 304 302 300 298 299 299 300 301 301 301 303 307 310 312 312 314 316 316 315 317 320 323 324 325 325 326 326 326 327 327 328 328 328 327 325 325 326 326 326 326 326 325 325 325 324 324 325 325 325 325
301 308 311 311 313 316 316 316 317 318 322 324 323 323 325 326 325 325 326 325 323 322 323 322 318 314 311 307 306 306 305 306 307 306 304 303 302 300 299 298 299 299 300 300 301 303 306 308 309 310 312 314 314 313 313 315 319 322 323 324 324 325 326 326 327 328 328 328 328 327 326 325 325 325 325 325 325 325 325 325 324 324 324 324 324 324